Terminal Aerodrome Forecast
Issued by NWS

Home | Current Version | Previous Version | Graphics & Text | Print | Product List | Glossary On
Versions: 1 2 3 4 5 6 7 8 9 10 11 12 13 14 15 16 17 18 19 20 21 22 23 24 25 26 27 28 29 30 31 32 33 34 35 36 37 38 39 40
000
FTUS43 KGRB 311100
TAFRHI
TAF
KRHI 311132Z 3112/0112 VRB03KT 1/4SM FG VV002
      TEMPO 3113/3115 2SM BR SCT005 SCT010
     FM311500 13004KT 4SM BR BKN015
     FM311700 15007KT P6SM SCT020 SCT250
     FM010000 16004KT P6SM FEW030 BKN140
     FM010100 16005KT P6SM VCSH BKN090
     FM010300 16006KT 5SM -SHRA BKN050
     FM010600 18006KT 3SM SHRA OVC030 PROB30 0106/0112 1 1/2SM TSRA
      BKN015CB=

USA.gov is the U.S. government's official web portal to all federal, state and local government web resources and services.